{"data":{"norad_id":63682,"intl_designator":"2025-085U","name":"STARLINK-33840","alt_names":[],"object_type":"PAYLOAD","status":"ACTIVE","operator":null,"country":"US","launch_date":"2025-04-28","launch_site_code":"AFETR","launch_vehicle":null,"mission":null,"orbit_class":"UNKNOWN","rcs_meters":null,"size_class":null,"mass_kg":null,"dimensions":null,"purposes":["comms"],"wikipedia_slug":null,"has_3d_model":false,"image_url":null,"decayed_at":null,"tle_current":{"epoch":"2026-05-24T20:04:04.040832Z","epoch_age_seconds":89223,"freshness":"FRESH","line1":"1 63682U 25085U   26144.83615788  .00014629  00000+0  53985-3 0  9992","line2":"2 63682  42.9996 321.0445 0001116 274.9761  85.0964 15.27593388 60515","mean_motion":15.27593388,"eccentricity":0.0001116,"inclination_deg":42.9996,"raan_deg":321.0445,"arg_perigee_deg":274.9761,"mean_anomaly_deg":85.0964,"bstar":0.00053985,"rev_number":6051,"period_min":94.26592254928,"perigee_km":482.24330394965,"apogee_km":483.77471173861,"semimajor_km":6861.1460078441,"source":"CELESTRAK","updated_at":"2026-05-25T13:38:20.094538Z"}}}